Location: Newark
(45.6000°N, 12.8833°E)
Time: 08:10:58
(UTC+00:00)

Courier 1B Rocket - Visible Passes

Search period start: 18 November 2019 00:00
Search period end: 28 November 2019 00:00
Orbit: 920 x 1202 km, 28.2° (Epoch: 17 November)

Date Brightness Start Highest point End Pass type
(mag) Time Alt. Az. Time Alt. Az. Time Alt. Az.
18 Nov 7.3 17:26:45 10° SW 17:31:46 19° S 17:36:54 10° SSE visible
18 Nov 7.6 19:22:23 10° SW 19:24:08 11° SSW 19:24:13 11° SSW visible
19 Nov 7.3 16:25:47 10° SW 16:30:54 20° S 16:36:10 10° SE visible
19 Nov 7.5 18:19:43 10° SW 18:23:21 14° SSW 18:27:01 10° S visible
20 Nov 7.5 17:18:08 10° SW 17:22:31 16° SSW 17:27:01 10° SSE visible
21 Nov 7.5 16:16:58 10° SW 16:21:41 18° S 16:26:33 10° SSE visible
21 Nov 7.8 18:12:58 10° SSW 18:14:03 10° SSW 18:15:09 10° SSW visible
22 Nov 7.6 17:10:03 10° SW 17:13:17 13° SSW 17:16:34 10° S visible
23 Nov 7.6 16:08:30 10° SW 16:12:29 16° SSW 16:16:35 10° SSE visible
25 Nov 7.8 16:00:40 10° SW 16:03:16 12° SSW 16:05:56 10° S visible
